Content
SEND FEEDBACK

Daily
Averages
Monthly
Summary
United Kingdom

CARDIFF, WALES


Home > Europe > United Kingdom > Wales
Elevation: 220 feet     Latitude: 51 24N     Longitude: 003 21W

WEATHER
 
SELECT A DAY
Number of Records: 280,938;   Date Range: 7/1/96 - 11/26/14
 
SHARE

PRINT THIS DATA

[ ← Previous Day ]
WEATHER ALMANAC - APRIL 4, 2013
[ Next Day → ]
[ °C ]   °F
Weather ElementAverageHighLow
Temperature37.3 °F41 °F (3:20 pm)33.8 °F (1:20 am)
Dewpoint23.4 °F26.6 °F (4:20 am)19.4 °F (12:50 am)
Humidity58.3 %75 % (4:20 am)42 % (4:50 pm)
Barometer30.01 in30.04 in (12:50 am)29.98 in (2:50 pm)
Wind Speed16.8 mph23 mph (2:20 pm)
Wind Gust32.2 mph (1:20 pm)
Weather ElementAverage
Visibility6.2 mi
Wind DirectionNE (44 °)

Weather ElementTotal
Precipitation---
Heating Degree Days27.6 (Base 65)
Averaged from 47 records on April 4, 2013
WEATHER CONDITIONS BREAKOUT
WIND DIRECTION BREAKOUT
WEATHER BY HOUR - APRIL 4, 2013
[ °C ]   °F
Local TimeTemperatureDewpointHumidityBarometerVisibilityWind DirectionWind SpeedGust SpeedPrecipitationEventsConditions
12:50 AM35.6 °F19.4 °F52 %30.04 in6.2 miNE (40°)12.7 mph
1:20 AM33.8 °F19.4 °F56 %30.04 inNE (40°)11.5 mphClear
1:50 AM35.6 °F19.4 °F52 %30.04 inNE (40°)15.0 mphClear
2:20 AM35.6 °F21.2 °F56 %30.04 inNE (40°)15.0 mphClear
2:50 AM33.8 °F23.0 °F65 %30.04 in6.2 miNE (40°)15.0 mph
3:20 AM33.8 °F24.8 °F70 %30.01 in6.2 miNE (40°)17.3 mph
3:50 AM33.8 °F24.8 °F70 %30.01 inNNE (30°)15.0 mphClear
4:20 AM33.8 °F26.6 °F75 %30.01 in6.2 miNNE (30°)17.3 mphPartly Cloudy
4:50 AM33.8 °F26.6 °F75 %30.01 in6.2 miNNE (30°)16.1 mphPartly Cloudy
5:20 AM33.8 °F24.8 °F70 %30.01 inNE (40°)16.1 mphClear
5:50 AM33.8 °F24.8 °F70 %30.01 in6.2 miNE (40°)13.8 mph
6:20 AM33.8 °F26.6 °F75 %30.01 in6.2 miNE (40°)15.0 mphPartly Cloudy
6:50 AM33.8 °F26.6 °F75 %30.01 inNE (40°)16.1 mphClear
7:20 AM33.8 °F26.6 °F75 %30.01 in6.2 miNE (40°)17.3 mphPartly Cloudy
7:50 AM35.6 °F26.6 °F70 %30.01 in6.2 miNE (40°)18.4 mphPartly Cloudy
8:20 AM35.6 °F26.6 °F70 %30.01 in6.2 miNE (40°)17.3 mphScattered Clouds
8:50 AM37.4 °F26.6 °F65 %30.01 in6.2 miNE (40°)17.3 mphScattered Clouds
9:20 AM37.4 °F26.6 °F65 %30.01 in6.2 miNE (40°)18.4 mphMostly Cloudy
9:50 AM37.4 °F26.6 °F65 %30.01 in6.2 miNE (50°)19.6 mphMostly Cloudy
10:20 AM37.4 °F26.6 °F65 %30.01 in6.2 miNE (50°)17.3 mphMostly Cloudy
10:50 AM37.4 °F26.6 °F65 %30.01 in6.2 miNE (50°)17.3 mphMostly Cloudy
11:20 AM37.4 °F24.8 °F60 %30.01 in6.2 miNE (50°)17.3 mphMostly Cloudy
11:50 AM37.4 °F26.6 °F65 %30.01 in6.2 miNE (40°)17.3 mphMostly Cloudy
12:20 PM37.4 °F26.6 °F65 %30.01 in6.2 miNE (50°)16.1 mph27.6 mphSnowLight Snow
12:50 PM37.4 °F26.6 °F65 %30.01 in6.2 miNE (40°)17.3 mphMostly Cloudy
1:20 PM37.4 °F26.6 °F65 %30.01 in6.2 miNE (40°)20.7 mph32.2 mphMostly Cloudy
1:50 PM37.4 °F26.6 °F65 %30.01 in6.2 miENE (60°)20.7 mphMostly Cloudy
2:20 PM39.2 °F26.6 °F61 %30.01 in6.2 miENE (60°)23.0 mphMostly Cloudy
2:50 PM39.2 °F24.8 °F56 %29.98 in6.2 miENE (60°)16.1 mphMostly Cloudy
3:20 PM41.0 °F24.8 °F53 %29.98 in6.2 miENE (60°)19.6 mphMostly Cloudy
3:50 PM41.0 °F21.2 °F45 %29.98 in6.2 miNE (50°)18.4 mphMostly Cloudy
4:20 PM41.0 °F21.2 °F45 %29.98 in6.2 miNE (50°)17.3 mphMostly Cloudy
4:50 PM41.0 °F19.4 °F42 %29.98 in6.2 miNE (40°)15.0 mphScattered Clouds
5:20 PM41.0 °F21.2 °F45 %29.98 in6.2 miNE (40°)17.3 mphMostly Cloudy
5:50 PM41.0 °F19.4 °F42 %29.98 in6.2 miNE (50°)16.1 mphMostly Cloudy
6:20 PM41.0 °F19.4 °F42 %29.98 in6.2 miNE (40°)19.6 mph32.2 mphMostly Cloudy
6:50 PM41.0 °F19.4 °F42 %29.98 in6.2 miNE (50°)18.4 mphScattered Clouds
7:20 PM41.0 °F19.4 °F42 %29.98 in6.2 miNE (50°)16.1 mphScattered Clouds
7:50 PM41.0 °F19.4 °F42 %29.98 in6.2 miNE (40°)20.7 mphPartly Cloudy
8:20 PM39.2 °F19.4 °F45 %29.98 in6.2 miNE (50°)19.6 mph
8:50 PM39.2 °F19.4 °F45 %30.01 in6.2 miNE (50°)17.3 mphPartly Cloudy
9:20 PM39.2 °F19.4 °F45 %30.01 in6.2 miNE (50°)16.1 mphPartly Cloudy
9:50 PM37.4 °F21.2 °F52 %30.01 in6.2 miNE (40°)13.8 mphPartly Cloudy
10:20 PM37.4 °F21.2 °F52 %30.01 in6.2 miNE (40°)13.8 mphScattered Clouds
10:50 PM37.4 °F21.2 °F52 %30.01 inNE (40°)15.0 mphClear
11:20 PM37.4 °F21.2 °F52 %30.01 inNE (50°)16.1 mphClear
11:50 PM35.6 °F21.2 °F56 %30.01 inNE (40°)12.7 mphClear
Hourly data recorded from EGFF, located miles away from Cardiff, Wales







STORIES FROM OUR PARTNERS